Location: Igri�s
(42.2144°N, 0.4320°W)
Time: 12:42:51
(UTC+00:00)

Okean 1-7 - Pass Details

Date: 13 August 2020
Orbit: 590 x 619 km, 82.5° (Epoch: 25 September)

Event Time Altitude Azimuth Distance (km) Brightness Sun altitude
Rises 20:29:18 0° 6° (N) 2,866 6.9 -14.6°
Reaches altitude 10° 20:32:02 10° 24° (NNE) 1,952 5.8 -15.0°
Maximum altitude 20:35:14 20° 72° (ENE) 1,399 4.5 -15.5°
Enters shadow 20:35:55 19° 85° (E) 1,425 4.5 -15.6°
